Time,TemperatureF,DewpointF,PressureIn,WindDirection,WindDirectionDegrees,WindSpeedMPH,WindSpeedGustMPH,Humidity,HourlyPrecipIn,Conditions,Clouds,dailyrainin,SoftwareType,DateUTC
2013-05-11 00:01:00,71.1,69.3,30.04,South,173,1.8,4.6,94,0.00,CLR,,0.00,WeatherDisplay:10.37,2013-05-11 04:01:00,
2013-05-11 00:02:00,71.0,69.2,30.04,South,191,5.7,7.0,94,0.00,CLR,,0.00,WeatherDisplay:10.37,2013-05-11 04:02:00,
2013-05-11 00:03:00,71.0,69.2,30.04,SSW,192,4.0,6.9,94,0.00,CLR,,0.00,WeatherDisplay:10.37,2013-05-11 04:03:00,
2013-05-11 00:05:00,71.0,69.2,30.04,SSW,193,5.0,8.0,94,0.00,CLR,,0.00,WeatherDisplay:10.37,2013-05-11 04:05:00,
2013-05-11 00:10:00,70.9,69.1,30.04,South,190,3.0,7.0,94,0.00,CLR,,0.00,WeatherDisplay:10.37,2013-05-11 04:10:00,
2013-05-11 00:15:00,70.8,69.0,30.04,SSW,196,3.0,7.0,94,0.00,CLR,,0.00,WeatherDisplay:10.37,2013-05-11 04:15:00,
2013-05-11 00:20:00,70.8,69.0,30.04,SSW,202,3.0,9.0,94,0.00,CLR,,0.00,WeatherDisplay:10.37,2013-05-11 04:20:00,
2013-05-11 00:25:00,70.7,68.9,30.04,SSW,201,2.0,7.0,94,0.00,CLR,,0.00,WeatherDisplay:10.37,2013-05-11 04:25:00,
2013-05-11 00:30:00,70.7,68.9,30.04,SSW,206,3.0,8.0,94,0.00,CLR,,0.00,WeatherDisplay:10.37,2013-05-11 04:30:00,
2013-05-11 00:35:00,70.7,68.9,30.05,SSW,194,2.0,7.0,94,0.00,CLR,,0.00,WeatherDisplay:10.37,2013-05-11 04:35:00,
2013-05-11 00:40:00,70.7,68.9,30.05,South,180,5.0,8.0,94,0.00,CLR,,0.00,WeatherDisplay:10.37,2013-05-11 04:40:00,
2013-05-11 00:45:00,70.8,69.0,30.04,South,188,5.0,9.0,94,0.00,CLR,,0.00,WeatherDisplay:10.37,2013-05-11 04:45:00,
2013-05-11 00:50:00,71.0,69.2,30.04,SSW,198,5.0,8.0,94,0.00,CLR,,0.00,WeatherDisplay:10.37,2013-05-11 04:50:00,
2013-05-11 00:55:00,71.1,69.3,30.04,SSW,197,3.0,7.0,94,0.00,CLR,,0.00,WeatherDisplay:10.37,2013-05-11 04:55:00,
2013-05-11 01:00:00,71.2,69.1,30.04,South,190,2.0,9.0,93,0.00,CLR,,0.00,WeatherDisplay:10.37,2013-05-11 05:00:00,
2013-05-11 01:05:00,71.3,69.2,30.04,SSW,193,3.0,9.0,93,0.00,CLR,,0.00,WeatherDisplay:10.37,2013-05-11 05:05:00,
2013-05-11 01:10:00,71.4,69.3,30.04,SSW,196,5.0,9.0,93,0.00,CLR,,0.00,WeatherDisplay:10.37,2013-05-11 05:10:00,
2013-05-11 01:15:00,71.5,69.4,30.04,SSW,207,4.9,7.0,93,0.00,CLR,,0.00,WeatherDisplay:10.37,2013-05-11 05:15:00,
2013-05-11 01:20:00,71.5,69.4,30.04,SSW,200,3.2,8.0,93,0.00,CLR,,0.00,WeatherDisplay:10.37,2013-05-11 05:20:00,
2013-05-11 01:25:00,71.4,69.3,30.03,SSW,195,2.5,6.9,93,0.00,CLR,,0.00,WeatherDisplay:10.37,2013-05-11 05:25:00,
2013-05-11 01:30:00,71.4,69.3,30.03,SSW,199,4.6,8.1,93,0.00,CLR,,0.00,WeatherDisplay:10.37,2013-05-11 05:30:00,
2013-05-11 01:36:00,71.3,69.2,30.03,South,180,4.3,8.0,93,0.00,CLR,,0.00,WeatherDisplay:10.37,2013-05-11 05:36:00,
2013-05-11 01:41:00,71.3,69.2,30.02,SSW,208,2.8,4.6,93,0.00,CLR,,0.00,WeatherDisplay:10.37,2013-05-11 05:41:00,
2013-05-11 01:46:00,71.3,69.2,30.02,SSW,198,2.0,5.8,93,0.00,CLR,,0.00,WeatherDisplay:10.37,2013-05-11 05:46:00,
2013-05-11 01:51:00,71.3,69.2,30.02,SSW,198,3.6,9.2,93,0.00,CLR,,0.00,WeatherDisplay:10.37,2013-05-11 05:51:00,
2013-05-11 01:56:00,71.3,69.2,30.02,SSW,200,3.6,4.6,93,0.00,CLR,,0.00,WeatherDisplay:10.37,2013-05-11 05:56:00,
2013-05-11 02:02:00,71.4,69.6,30.02,SSW,192,3.3,8.1,94,0.00,CLR,,0.00,WeatherDisplay:10.37,2013-05-11 06:02:00,
2013-05-11 02:07:00,71.5,69.7,30.02,SSW,194,5.5,6.9,94,0.00,CLR,,0.00,WeatherDisplay:10.37,2013-05-11 06:07:00,
2013-05-11 02:12:00,71.6,69.8,30.01,SSW,207,3.6,4.6,94,0.00,CLR,,0.00,WeatherDisplay:10.37,2013-05-11 06:12:00,
2013-05-11 02:17:00,71.6,69.8,30.01,SW,215,0.9,2.3,94,0.00,CLR,,0.00,WeatherDisplay:10.37,2013-05-11 06:17:00,
2013-05-11 02:22:00,71.5,69.7,30.01,South,174,4.9,6.9,94,0.00,CLR,,0.00,WeatherDisplay:10.37,2013-05-11 06:22:00,
2013-05-11 02:28:00,71.4,69.6,30.00,South,186,5.8,9.2,94,0.00,CLR,,0.00,WeatherDisplay:10.37,2013-05-11 06:28:00,
2013-05-11 02:33:00,71.3,69.2,30.00,SSE,157,3.7,8.1,93,0.00,CLR,,0.00,WeatherDisplay:10.37,2013-05-11 06:33:00,
2013-05-11 02:38:00,71.2,69.1,30.00,South,189,6.6,10.4,93,0.00,CLR,,0.00,WeatherDisplay:10.37,2013-05-11 06:38:00,
2013-05-11 02:43:00,71.2,69.1,30.00,South,187,3.3,11.5,93,0.00,CLR,,0.00,WeatherDisplay:10.37,2013-05-11 06:43:00,
2013-05-11 02:49:00,71.1,68.7,30.00,SSW,207,4.9,8.1,92,0.00,CLR,,0.00,WeatherDisplay:10.37,2013-05-11 06:49:00,
2013-05-11 02:54:00,71.2,68.8,30.00,South,173,4.9,6.9,92,0.00,CLR,,0.00,WeatherDisplay:10.37,2013-05-11 06:54:00,
2013-05-11 02:59:00,71.2,68.8,30.01,SSW,202,2.6,5.0,92,0.00,CLR,,0.00,WeatherDisplay:10.37,2013-05-11 06:59:00,
2013-05-11 03:04:00,71.2,68.8,30.01,SSW,197,6.8,11.5,92,0.00,CLR,,0.00,WeatherDisplay:10.37,2013-05-11 07:04:00,
2013-05-11 03:09:00,71.2,68.8,30.00,SSW,201,2.6,5.8,92,0.00,CLR,,0.00,WeatherDisplay:10.37,2013-05-11 07:09:00,
2013-05-11 03:14:00,71.3,68.5,30.00,SSW,194,4.4,6.9,91,0.00,CLR,,0.00,WeatherDisplay:10.37,2013-05-11 07:14:00,
2013-05-11 03:19:00,71.5,68.7,30.01,SSW,202,6.1,11.5,91,0.00,CLR,,0.00,WeatherDisplay:10.37,2013-05-11 07:19:00,
2013-05-11 03:24:00,71.7,68.6,30.00,SSW,203,6.6,11.5,90,0.00,CLR,,0.00,WeatherDisplay:10.37,2013-05-11 07:24:00,
2013-05-11 03:29:00,71.8,68.7,30.00,SSW,201,3.4,5.0,90,0.00,CLR,,0.00,WeatherDisplay:10.37,2013-05-11 07:29:00,
2013-05-11 03:34:00,71.7,68.6,30.00,SE,139,2.5,3.5,90,0.00,CLR,,0.00,WeatherDisplay:10.37,2013-05-11 07:34:00,
2013-05-11 03:40:00,71.7,68.6,30.00,South,187,2.0,10.0,90,0.00,CLR,,0.00,WeatherDisplay:10.37,2013-05-11 07:40:00,
2013-05-11 03:45:00,71.7,68.6,30.00,SSW,196,5.0,9.0,90,0.00,CLR,,0.00,WeatherDisplay:10.37,2013-05-11 07:45:00,
2013-05-11 03:50:00,71.7,68.6,30.00,SSW,194,7.0,12.0,90,0.00,CLR,,0.00,WeatherDisplay:10.37,2013-05-11 07:50:00,
2013-05-11 03:55:00,71.7,68.6,30.00,SSW,193,5.0,13.0,90,0.00,CLR,,0.00,WeatherDisplay:10.37,2013-05-11 07:55:00,
2013-05-11 04:00:00,71.8,68.7,30.00,SSW,192,5.0,14.0,90,0.00,CLR,,0.00,WeatherDisplay:10.37,2013-05-11 08:00:00,
2013-05-11 04:05:00,71.8,68.7,30.00,SSW,192,5.0,10.0,90,0.00,CLR,,0.00,WeatherDisplay:10.37,2013-05-11 08:05:00,
2013-05-11 04:10:00,71.8,68.7,30.00,SSW,202,7.6,11.5,90,0.00,CLR,,0.00,WeatherDisplay:10.37,2013-05-11 08:10:00,
2013-05-11 04:15:00,71.8,68.7,30.00,SSW,198,5.0,10.0,90,0.00,CLR,,0.00,WeatherDisplay:10.37,2013-05-11 08:15:00,
2013-05-11 04:20:00,71.8,68.7,30.00,South,190,5.0,12.0,90,0.00,CLR,,0.00,WeatherDisplay:10.37,2013-05-11 08:20:00,
2013-05-11 04:25:00,71.8,68.7,30.00,SSW,194,5.0,9.0,90,0.00,CLR,,0.00,WeatherDisplay:10.37,2013-05-11 08:25:00,
2013-05-11 04:30:00,71.7,68.3,30.00,SSW,199,5.0,10.0,89,0.00,CLR,,0.00,WeatherDisplay:10.37,2013-05-11 08:30:00,
2013-05-11 04:35:00,71.7,68.6,30.00,SSW,198,6.0,10.0,90,0.00,CLR,,0.00,WeatherDisplay:10.37,2013-05-11 08:35:00,
2013-05-11 04:40:00,71.7,68.6,30.00,SSW,197,5.0,12.0,90,0.00,CLR,,0.00,WeatherDisplay:10.37,2013-05-11 08:40:00,
2013-05-11 04:45:00,71.6,68.5,30.00,SSW,194,3.0,10.0,90,0.00,CLR,,0.00,WeatherDisplay:10.37,2013-05-11 08:45:00,
2013-05-11 04:50:00,71.5,68.4,30.00,South,184,5.0,12.0,90,0.00,CLR,,0.00,WeatherDisplay:10.37,2013-05-11 08:50:00,
2013-05-11 04:55:00,71.5,68.4,30.00,South,186,5.0,9.0,90,0.00,CLR,,0.00,WeatherDisplay:10.37,2013-05-11 08:55:00,
2013-05-11 05:00:00,71.5,68.4,29.99,SSW,192,6.0,12.0,90,0.00,CLR,,0.00,WeatherDisplay:10.37,2013-05-11 09:00:00,
2013-05-11 05:05:00,71.4,68.3,30.00,SSW,196,5.0,12.0,90,0.00,CLR,,0.00,WeatherDisplay:10.37,2013-05-11 09:05:00,
2013-05-11 05:10:00,71.5,68.4,30.00,SSW,197,6.0,12.0,90,0.00,CLR,,0.00,WeatherDisplay:10.37,2013-05-11 09:10:00,
2013-05-11 05:15:00,71.5,68.4,29.99,SSW,195,5.0,12.0,90,0.00,CLR,,0.00,WeatherDisplay:10.37,2013-05-11 09:15:00,
2013-05-11 05:20:00,71.4,68.3,29.99,SSW,196,6.0,12.0,90,0.00,CLR,,0.00,WeatherDisplay:10.37,2013-05-11 09:20:00,
2013-05-11 05:25:00,71.3,68.3,29.99,SSW,192,6.0,12.0,90,0.00,CLR,,0.00,WeatherDisplay:10.37,2013-05-11 09:25:00,
2013-05-11 05:30:00,71.3,68.2,29.99,SSW,195,5.0,12.0,90,0.00,CLR,,0.00,WeatherDisplay:10.37,2013-05-11 09:30:00,
2013-05-11 05:35:00,71.2,68.1,29.99,SSW,209,5.0,9.2,90,0.00,CLR,,0.00,WeatherDisplay:10.37,2013-05-11 09:35:00,
2013-05-11 05:40:00,71.2,68.4,30.00,SW,224,4.8,8.1,91,0.00,CLR,,0.00,WeatherDisplay:10.37,2013-05-11 09:40:00,
2013-05-11 05:45:00,71.2,68.1,30.00,South,189,3.5,8.1,90,0.00,CLR,,0.00,WeatherDisplay:10.37,2013-05-11 09:45:00,
2013-05-11 05:50:00,71.1,68.3,30.00,SW,227,5.7,10.4,91,0.00,CLR,,0.00,WeatherDisplay:10.37,2013-05-11 09:50:00,
2013-05-11 05:55:00,71.2,68.4,30.00,South,176,3.4,6.9,91,0.00,CLR,,0.00,WeatherDisplay:10.37,2013-05-11 09:55:00,
2013-05-11 06:01:00,71.1,68.3,30.00,South,188,4.7,8.1,91,0.00,CLR,,0.00,WeatherDisplay:10.37,2013-05-11 10:01:00,
2013-05-11 06:06:00,71.2,68.4,30.00,SSW,211,5.1,9.2,91,0.00,CLR,,0.00,WeatherDisplay:10.37,2013-05-11 10:06:00,
2013-05-11 06:11:00,71.2,68.4,30.00,SSW,207,3.3,6.9,91,0.00,CLR,,0.00,WeatherDisplay:10.37,2013-05-11 10:11:00,
2013-05-11 06:16:00,71.3,68.5,30.01,SSW,207,2.8,3.5,91,0.00,CLR,,0.00,WeatherDisplay:10.37,2013-05-11 10:16:00,
2013-05-11 06:21:00,71.3,68.5,30.00,SSW,199,3.8,10.4,91,0.00,CLR,,0.00,WeatherDisplay:10.37,2013-05-11 10:21:00,
2013-05-11 06:26:00,71.4,68.6,30.01,SSW,199,6.2,11.5,91,0.00,CLR,,0.00,WeatherDisplay:10.37,2013-05-11 10:26:00,
2013-05-11 06:31:00,71.4,68.6,30.01,SSW,200,3.6,6.9,91,0.00,CLR,,0.00,WeatherDisplay:10.37,2013-05-11 10:31:00,
2013-05-11 06:36:00,71.3,68.5,30.01,SSW,207,3.7,8.0,91,0.00,CLR,,0.00,WeatherDisplay:10.37,2013-05-11 10:36:00,
2013-05-11 06:41:00,71.3,68.5,30.01,SSE,167,3.7,5.8,91,0.00,CLR,,0.00,WeatherDisplay:10.37,2013-05-11 10:41:00,
2013-05-11 06:46:00,71.2,68.4,30.01,SSW,213,3.7,8.1,91,0.00,CLR,,0.00,WeatherDisplay:10.37,2013-05-11 10:46:00,
2013-05-11 06:52:00,71.2,68.4,30.01,South,191,3.9,7.0,91,0.00,CLR,,0.00,WeatherDisplay:10.37,2013-05-11 10:52:00,
2013-05-11 06:57:00,71.1,68.3,30.01,SSW,193,2.2,9.2,91,0.00,CLR,,0.00,WeatherDisplay:10.37,2013-05-11 10:57:00,
2013-05-11 07:02:00,71.1,68.3,30.01,SSW,207,4.3,6.9,91,0.00,CLR,,0.00,WeatherDisplay:10.37,2013-05-11 11:02:00,
2013-05-11 07:07:00,71.1,68.3,30.01,SSW,198,2.4,6.9,91,0.00,CLR,,0.00,WeatherDisplay:10.37,2013-05-11 11:07:00,
2013-05-11 07:12:00,71.2,68.4,30.01,SSW,192,4.0,6.9,91,0.00,CLR,,0.00,WeatherDisplay:10.37,2013-05-11 11:12:00,
2013-05-11 07:17:00,71.2,68.4,30.01,South,178,4.2,5.8,91,0.00,CLR,,0.00,WeatherDisplay:10.37,2013-05-11 11:17:00,
2013-05-11 07:23:00,71.4,68.6,30.00,South,188,4.7,6.9,91,0.00,CLR,,0.00,WeatherDisplay:10.37,2013-05-11 11:23:00,
2013-05-11 07:28:00,71.5,68.7,30.00,South,180,5.0,6.9,91,0.00,CLR,,0.00,WeatherDisplay:10.37,2013-05-11 11:28:00,
2013-05-11 07:33:00,71.6,68.8,30.00,South,183,1.4,4.0,91,0.00,CLR,,0.00,WeatherDisplay:10.37,2013-05-11 11:33:00,
2013-05-11 07:38:00,71.8,68.7,30.00,SW,215,3.4,6.9,90,0.00,CLR,,0.00,WeatherDisplay:10.37,2013-05-11 11:38:00,
2013-05-11 08:39:00,73.8,69.7,30.00,SW,221,3.5,9.0,87,0.00,CLR,,0.00,WeatherDisplay:10.37,2013-05-11 12:39:00,
2013-05-11 08:44:00,73.9,69.8,30.00,SSW,194,3.2,7.0,87,0.00,CLR,,0.00,WeatherDisplay:10.37,2013-05-11 12:44:00,
2013-05-11 08:49:00,74.1,70.0,30.00,SSW,197,4.8,9.0,87,0.00,CLR,,0.00,WeatherDisplay:10.37,2013-05-11 12:49:00,
2013-05-11 08:55:00,74.2,69.7,29.99,SSW,198,3.7,6.9,86,0.00,CLR,,0.00,WeatherDisplay:10.37,2013-05-11 12:55:00,
2013-05-11 09:00:00,74.3,69.8,29.99,South,179,3.7,6.0,86,0.00,CLR,,0.00,WeatherDisplay:10.37,2013-05-11 13:00:00,
2013-05-11 09:05:00,74.3,69.8,29.99,SSW,209,4.5,8.1,86,0.00,CLR,,0.00,WeatherDisplay:10.37,2013-05-11 13:05:00,
2013-05-11 09:10:00,74.4,69.9,29.99,SSW,195,3.0,10.0,86,0.00,,,0.00,WeatherDisplay:10.37,2013-05-11 13:10:00,
2013-05-11 09:15:00,74.3,69.8,29.99,South,180,4.9,9.2,86,0.00,CLR,,0.00,WeatherDisplay:10.37,2013-05-11 13:15:00,
2013-05-11 09:20:00,74.3,69.8,29.98,SSW,204,3.0,7.0,86,0.00,,,0.00,WeatherDisplay:10.37,2013-05-11 13:20:00,
2013-05-11 09:25:00,74.3,69.8,29.98,SSW,204,2.0,10.0,86,0.00,,,0.00,WeatherDisplay:10.37,2013-05-11 13:25:00,
2013-05-11 09:30:00,74.4,69.9,29.98,SSW,196,6.0,10.0,86,0.00,,,0.00,WeatherDisplay:10.37,2013-05-11 13:30:00,
2013-05-11 09:35:00,74.4,69.9,29.98,SSW,193,3.0,10.0,86,0.00,,,0.00,WeatherDisplay:10.37,2013-05-11 13:35:00,
2013-05-11 09:40:00,74.4,69.9,29.98,SSW,194,5.0,9.0,86,0.00,,,0.00,WeatherDisplay:10.37,2013-05-11 13:40:00,
2013-05-11 09:45:00,74.4,70.3,29.98,SSW,200,3.0,10.0,87,0.00,,,0.00,WeatherDisplay:10.37,2013-05-11 13:45:00,
2013-05-11 09:50:00,74.5,70.4,29.98,SSW,198,3.0,7.0,87,0.00,,,0.00,WeatherDisplay:10.37,2013-05-11 13:50:00,
2013-05-11 09:55:00,74.6,70.5,29.97,SSW,203,6.0,8.0,87,0.00,,,0.00,WeatherDisplay:10.37,2013-05-11 13:55:00,
2013-05-11 10:00:00,74.5,70.1,29.97,SSW,199,5.0,8.0,86,0.00,,,0.00,WeatherDisplay:10.37,2013-05-11 14:00:00,
2013-05-11 10:05:00,74.5,70.1,29.97,SSW,201,3.0,10.0,86,0.00,,,0.00,WeatherDisplay:10.37,2013-05-11 14:05:00,
2013-05-11 10:10:00,74.5,70.0,29.97,SSW,193,3.0,8.0,86,0.00,,,0.00,WeatherDisplay:10.37,2013-05-11 14:10:00,
2013-05-11 10:15:00,74.6,70.1,29.97,SSW,195,5.0,8.0,86,0.00,,,0.00,WeatherDisplay:10.37,2013-05-11 14:15:00,
2013-05-11 10:20:00,74.8,70.7,29.97,SSW,197,2.0,8.0,87,0.00,,,0.00,WeatherDisplay:10.37,2013-05-11 14:20:00,
2013-05-11 10:25:00,74.9,70.4,29.97,SSW,198,5.0,8.0,86,0.00,,,0.00,WeatherDisplay:10.37,2013-05-11 14:25:00,
2013-05-11 10:30:00,75.2,71.1,29.97,SSW,198,3.0,9.0,87,0.00,,,0.00,WeatherDisplay:10.37,2013-05-11 14:30:00,
2013-05-11 10:35:00,75.4,70.6,29.97,SSW,201,3.0,9.0,85,0.00,,,0.00,WeatherDisplay:10.37,2013-05-11 14:35:00,
2013-05-11 10:40:00,75.7,70.9,29.97,SSW,199,0.0,9.0,85,0.00,,,0.00,WeatherDisplay:10.37,2013-05-11 14:40:00,
2013-05-11 10:45:00,76.3,71.5,29.97,SSW,199,5.0,12.0,85,0.00,,,0.00,WeatherDisplay:10.37,2013-05-11 14:45:00,
2013-05-11 10:50:00,76.5,71.3,29.97,SSW,213,1.7,3.5,84,0.00,CLR,,0.00,WeatherDisplay:10.37,2013-05-11 14:50:00,
2013-05-11 10:55:00,76.6,71.0,29.97,SSW,202,5.0,10.0,83,0.00,CLR,,0.00,WeatherDisplay:10.37,2013-05-11 14:55:00,
2013-05-11 11:00:00,76.6,71.1,29.97,SSW,200,5.0,9.0,83,0.00,CLR,,0.00,WeatherDisplay:10.37,2013-05-11 15:00:00,
2013-05-11 11:05:00,76.7,71.5,29.97,SSW,198,2.0,8.0,84,0.00,CLR,,0.00,WeatherDisplay:10.37,2013-05-11 15:05:00,
2013-05-11 11:10:00,76.9,71.0,29.97,SSW,199,6.0,13.0,82,0.00,CLR,,0.00,WeatherDisplay:10.37,2013-05-11 15:10:00,
2013-05-11 11:15:00,77.1,71.5,29.97,SSW,201,3.0,7.0,83,0.00,CLR,,0.00,WeatherDisplay:10.37,2013-05-11 15:15:00,
2013-05-11 11:20:00,77.3,71.4,29.97,SSW,205,6.0,12.0,82,0.00,CLR,,0.00,WeatherDisplay:10.37,2013-05-11 15:20:00,
2013-05-11 11:25:00,77.7,71.8,29.96,SSW,205,6.0,14.0,82,0.00,CLR,,0.00,WeatherDisplay:10.37,2013-05-11 15:25:00,
2013-05-11 11:30:00,77.9,72.0,29.97,SSW,197,5.0,12.0,82,0.00,CLR,,0.00,WeatherDisplay:10.37,2013-05-11 15:30:00,
2013-05-11 11:35:00,78.3,72.0,29.97,South,186,7.0,12.0,81,0.00,CLR,,0.00,WeatherDisplay:10.37,2013-05-11 15:35:00,
2013-05-11 11:40:00,78.6,71.9,29.97,SSW,197,5.0,13.0,80,0.00,CLR,,0.00,WeatherDisplay:10.37,2013-05-11 15:40:00,
2013-05-11 11:45:00,78.8,72.1,29.96,SSW,200,7.0,12.0,80,0.00,CLR,,0.00,WeatherDisplay:10.37,2013-05-11 15:45:00,
2013-05-11 11:50:00,78.8,71.7,29.95,SSW,204,6.0,20.0,79,0.00,CLR,,0.00,WeatherDisplay:10.37,2013-05-11 15:50:00,
2013-05-11 11:55:00,78.9,71.9,29.94,SSW,198,7.0,13.0,79,0.00,CLR,,0.00,WeatherDisplay:10.37,2013-05-11 15:55:00,
2013-05-11 12:00:00,79.0,71.9,29.94,SSW,196,8.0,13.0,79,0.00,CLR,,0.00,WeatherDisplay:10.37,2013-05-11 16:00:00,
2013-05-11 12:05:00,78.9,71.5,29.94,SSW,194,7.0,17.0,78,0.00,CLR,,0.00,WeatherDisplay:10.37,2013-05-11 16:05:00,
2013-05-11 12:10:00,78.8,71.7,29.94,SSW,199,5.0,15.0,79,0.00,CLR,,0.00,WeatherDisplay:10.37,2013-05-11 16:10:00,
2013-05-11 12:15:00,78.9,71.8,29.94,SSW,198,6.0,15.0,79,0.00,CLR,,0.00,WeatherDisplay:10.37,2013-05-11 16:15:00,
2013-05-11 12:20:00,78.7,71.3,29.94,SSW,195,8.0,17.0,78,0.00,CLR,,0.00,WeatherDisplay:10.37,2013-05-11 16:20:00,
2013-05-11 12:25:00,78.6,71.9,29.95,SSW,195,6.0,12.0,80,0.00,CLR,,0.00,WeatherDisplay:10.37,2013-05-11 16:25:00,
2013-05-11 12:30:00,78.9,72.2,29.94,South,189,5.0,9.0,80,0.00,CLR,,0.00,WeatherDisplay:10.37,2013-05-11 16:30:00,
2013-05-11 12:35:00,79.0,71.9,29.94,South,186,8.0,17.0,79,0.00,CLR,,0.00,WeatherDisplay:10.37,2013-05-11 16:35:00,
2013-05-11 12:40:00,78.7,72.0,29.94,SSW,192,6.0,13.0,80,0.00,CLR,,0.00,WeatherDisplay:10.37,2013-05-11 16:40:00,
2013-05-11 12:45:00,78.7,72.0,29.95,SSW,200,10.0,18.0,80,0.00,CLR,,0.00,WeatherDisplay:10.37,2013-05-11 16:45:00,
2013-05-11 12:50:00,78.5,71.8,29.95,SSW,194,10.0,20.0,80,0.00,CLR,,0.00,WeatherDisplay:10.37,2013-05-11 16:50:00,
2013-05-11 12:55:00,78.4,72.1,29.95,SSW,192,3.0,14.0,81,0.00,CLR,,0.00,WeatherDisplay:10.37,2013-05-11 16:55:00,
2013-05-11 13:00:00,78.7,72.4,29.94,South,190,5.0,20.0,81,0.00,CLR,,0.00,WeatherDisplay:10.37,2013-05-11 17:00:00,
2013-05-11 13:05:00,78.8,72.5,29.94,SSW,193,7.0,15.0,81,0.00,CLR,,0.00,WeatherDisplay:10.37,2013-05-11 17:05:00,
2013-05-11 13:10:00,79.2,72.9,29.95,SSW,196,6.0,17.0,81,0.00,CLR,,0.00,WeatherDisplay:10.37,2013-05-11 17:10:00,
2013-05-11 13:15:00,79.2,71.7,29.94,SSW,198,7.0,18.0,78,0.00,CLR,,0.00,WeatherDisplay:10.37,2013-05-11 17:15:00,
2013-05-11 13:20:00,79.1,72.0,29.94,SSW,212,7.0,16.0,79,0.00,CLR,,0.00,WeatherDisplay:10.37,2013-05-11 17:20:00,
2013-05-11 13:25:00,78.7,72.0,29.94,SSW,211,7.0,17.0,80,0.00,CLR,,0.00,WeatherDisplay:10.37,2013-05-11 17:25:00,
2013-05-11 13:30:00,78.7,72.4,29.94,SSW,203,6.0,12.0,81,0.00,CLR,,0.00,WeatherDisplay:10.37,2013-05-11 17:30:00,
2013-05-11 13:35:00,79.0,72.3,29.94,SSW,204,6.0,10.0,80,0.00,CLR,,0.00,WeatherDisplay:10.37,2013-05-11 17:35:00,
2013-05-11 13:40:00,78.8,72.5,29.94,SSW,201,5.0,14.0,81,0.00,CLR,,0.00,WeatherDisplay:10.37,2013-05-11 17:40:00,
2013-05-11 13:45:00,78.6,72.6,29.94,SSW,199,6.0,14.0,82,0.00,CLR,,0.00,WeatherDisplay:10.37,2013-05-11 17:45:00,
2013-05-11 13:50:00,78.3,72.4,29.93,SSW,199,7.0,15.0,82,0.00,CLR,,0.00,WeatherDisplay:10.37,2013-05-11 17:50:00,
2013-05-11 13:55:00,78.6,73.3,29.92,SSW,195,5.0,12.0,84,0.00,CLR,,0.00,WeatherDisplay:10.37,2013-05-11 17:55:00,
2013-05-11 14:00:00,78.9,72.9,29.92,SSW,199,6.0,18.0,82,0.00,CLR,,0.00,WeatherDisplay:10.37,2013-05-11 18:00:00,
2013-05-11 14:05:00,78.6,72.6,29.92,SSW,197,8.0,21.0,82,0.00,CLR,,0.00,WeatherDisplay:10.37,2013-05-11 18:05:00,
2013-05-11 14:10:00,78.7,73.1,29.91,SSW,195,6.0,13.0,83,0.00,CLR,,0.00,WeatherDisplay:10.37,2013-05-11 18:10:00,
2013-05-11 14:15:00,78.5,72.5,29.90,South,190,13.0,20.0,82,0.00,CLR,,0.00,WeatherDisplay:10.37,2013-05-11 18:15:00,
2013-05-11 14:20:00,77.9,71.6,29.90,SSW,194,12.0,23.0,81,0.00,CLR,,0.00,WeatherDisplay:10.37,2013-05-11 18:20:00,
2013-05-11 14:25:00,78.2,71.1,29.90,SSW,200,8.0,20.0,79,0.00,CLR,,0.00,WeatherDisplay:10.37,2013-05-11 18:25:00,
2013-05-11 14:30:00,78.5,71.1,29.90,SSW,199,9.0,22.0,78,0.00,CLR,,0.00,WeatherDisplay:10.37,2013-05-11 18:30:00,
2013-05-11 14:35:00,78.7,72.0,29.90,South,190,8.0,17.0,80,0.00,CLR,,0.00,WeatherDisplay:10.37,2013-05-11 18:35:00,
2013-05-11 14:40:00,78.5,71.8,29.90,South,185,12.0,21.0,80,0.00,CLR,,0.00,WeatherDisplay:10.37,2013-05-11 18:40:00,
2013-05-11 14:45:00,78.0,71.7,29.90,SSW,193,7.0,20.0,81,0.00,CLR,,0.00,WeatherDisplay:10.37,2013-05-11 18:45:00,
2013-05-11 14:50:00,77.9,72.0,29.90,SSW,197,8.0,14.0,82,0.00,CLR,,0.00,WeatherDisplay:10.37,2013-05-11 18:50:00,
2013-05-11 14:55:00,78.0,71.3,29.90,SSW,197,10.0,22.0,80,0.00,CLR,,0.00,WeatherDisplay:10.37,2013-05-11 18:55:00,
2013-05-11 15:00:00,77.8,70.8,29.89,SSW,200,8.0,20.0,79,0.00,CLR,,0.00,WeatherDisplay:10.37,2013-05-11 19:00:00,
2013-05-11 15:05:00,77.6,70.6,29.88,SSW,200,9.0,24.0,79,0.00,CLR,,0.00,WeatherDisplay:10.37,2013-05-11 19:05:00,
2013-05-11 15:10:00,77.9,70.5,29.88,SSW,206,6.0,13.0,78,0.00,CLR,,0.00,WeatherDisplay:10.37,2013-05-11 19:10:00,
2013-05-11 15:15:00,77.9,70.5,29.88,SSW,196,6.0,18.0,78,0.00,CLR,,0.00,WeatherDisplay:10.37,2013-05-11 19:15:00,
2013-05-11 15:20:00,78.0,70.2,29.88,SSW,201,7.0,17.0,77,0.00,CLR,,0.00,WeatherDisplay:10.37,2013-05-11 19:20:00,
2013-05-11 15:25:00,77.8,70.0,29.88,SSW,204,10.0,17.0,77,0.00,CLR,,0.00,WeatherDisplay:10.37,2013-05-11 19:25:00,
2013-05-11 15:30:00,77.8,70.4,29.88,SSW,195,8.0,20.0,78,0.00,CLR,,0.00,WeatherDisplay:10.37,2013-05-11 19:30:00,
2013-05-11 15:35:00,78.4,71.7,29.88,SW,218,5.5,7.0,80,0.00,CLR,,0.00,WeatherDisplay:10.37,2013-05-11 19:35:00,
2013-05-11 15:40:00,78.3,70.5,29.88,WSW,242,7.3,13.8,77,0.00,CLR,,0.00,WeatherDisplay:10.37,2013-05-11 19:40:00,
2013-05-11 15:45:00,78.0,71.0,29.88,South,175,6.0,6.9,79,0.00,CLR,,0.00,WeatherDisplay:10.37,2013-05-11 19:45:00,
2013-05-11 15:50:00,77.9,71.2,29.88,SSW,193,6.0,12.7,80,0.00,CLR,,0.00,WeatherDisplay:10.37,2013-05-11 19:50:00,
2013-05-11 15:55:00,78.0,71.3,29.88,South,185,5.8,11.5,80,0.00,CLR,,0.00,WeatherDisplay:10.37,2013-05-11 19:55:00,
2013-05-11 16:00:00,77.6,71.3,29.88,SSW,203,7.2,11.5,81,0.00,CLR,,0.00,WeatherDisplay:10.37,2013-05-11 20:00:00,
2013-05-11 16:05:00,77.3,71.0,29.87,SSW,205,5.0,12.7,81,0.00,CLR,,0.00,WeatherDisplay:10.37,2013-05-11 20:05:00,
2013-05-11 16:11:00,76.7,70.8,29.87,SSW,195,7.2,11.5,82,0.00,CLR,,0.00,WeatherDisplay:10.37,2013-05-11 20:11:00,
2013-05-11 16:16:00,76.1,70.9,29.88,SW,228,7.2,19.6,84,0.00,CLR,,0.00,WeatherDisplay:10.37,2013-05-11 20:16:00,
2013-05-11 16:21:00,75.7,70.9,29.87,SSE,159,7.2,16.1,85,0.00,CLR,,0.00,WeatherDisplay:10.37,2013-05-11 20:21:00,
2013-05-11 16:26:00,75.4,70.9,29.87,South,186,8.0,15.0,86,0.00,CLR,,0.00,WeatherDisplay:10.37,2013-05-11 20:26:00,
2013-05-11 16:31:00,75.3,70.8,29.87,South,188,5.6,11.5,86,0.00,CLR,,0.00,WeatherDisplay:10.37,2013-05-11 20:31:00,
2013-05-11 16:36:00,75.2,70.7,29.87,SSW,208,7.2,13.8,86,0.00,CLR,,0.00,WeatherDisplay:10.37,2013-05-11 20:36:00,
2013-05-11 16:41:00,75.1,71.0,29.87,SSW,202,6.3,13.8,87,0.00,CLR,,0.00,WeatherDisplay:10.37,2013-05-11 20:41:00,
2013-05-11 16:46:00,75.2,71.4,29.87,South,188,6.7,11.5,88,0.00,CLR,,0.00,WeatherDisplay:10.37,2013-05-11 20:46:00,
2013-05-11 16:51:00,75.0,71.2,29.87,SW,229,5.9,10.4,88,0.00,CLR,,0.00,WeatherDisplay:10.37,2013-05-11 20:51:00,
2013-05-11 16:57:00,75.1,71.3,29.87,SSW,202,6.9,11.5,88,0.00,CLR,,0.00,WeatherDisplay:10.37,2013-05-11 20:57:00,
2013-05-11 17:02:00,75.4,71.3,29.87,SSE,148,9.6,19.6,87,0.00,CLR,,0.00,WeatherDisplay:10.37,2013-05-11 21:02:00,
2013-05-11 17:07:00,75.5,71.4,29.87,South,186,5.3,5.8,87,0.00,CLR,,0.00,WeatherDisplay:10.37,2013-05-11 21:07:00,
2013-05-11 17:12:00,75.5,71.0,29.87,SSW,202,5.8,17.3,86,0.00,CLR,,0.00,WeatherDisplay:10.37,2013-05-11 21:12:00,
2013-05-11 17:17:00,75.4,70.9,29.87,SW,221,6.7,18.4,86,0.00,CLR,,0.00,WeatherDisplay:10.37,2013-05-11 21:17:00,
2013-05-11 17:23:00,75.4,70.9,29.87,SSW,211,7.8,15.0,86,0.00,CLR,,0.00,WeatherDisplay:10.37,2013-05-11 21:23:00,
2013-05-11 17:28:00,75.3,70.8,29.88,SSW,192,10.4,16.1,86,0.00,CLR,,0.00,WeatherDisplay:10.37,2013-05-11 21:28:00,
2013-05-11 17:33:00,75.2,71.1,29.88,SE,138,5.8,18.4,87,0.00,CLR,,0.00,WeatherDisplay:10.37,2013-05-11 21:33:00,
2013-05-11 17:38:00,75.2,71.1,29.88,West,277,6.9,9.2,87,0.00,CLR,,0.00,WeatherDisplay:10.37,2013-05-11 21:38:00,
2013-05-11 17:43:00,75.1,71.0,29.87,South,182,6.4,10.4,87,0.00,CLR,,0.00,WeatherDisplay:10.37,2013-05-11 21:43:00,
2013-05-11 17:48:00,74.9,70.8,29.87,West,263,3.9,8.1,87,0.00,CLR,,0.00,WeatherDisplay:10.37,2013-05-11 21:48:00,
2013-05-11 17:53:00,74.8,71.0,29.87,SSW,193,8.4,14.0,88,0.00,CLR,,0.00,WeatherDisplay:10.37,2013-05-11 21:53:00,
2013-05-11 17:59:00,74.4,70.6,29.87,SSW,196,7.9,12.7,88,0.00,CLR,,0.00,WeatherDisplay:10.37,2013-05-11 21:59:00,
2013-05-11 18:04:00,74.2,70.7,29.87,SSW,211,5.1,11.0,89,0.00,CLR,,0.00,WeatherDisplay:10.37,2013-05-11 22:04:00,
2013-05-11 18:09:00,74.1,70.6,29.87,SSE,165,6.6,11.5,89,0.00,CLR,,0.00,WeatherDisplay:10.37,2013-05-11 22:09:00,
2013-05-11 18:14:00,73.8,70.4,29.87,SSW,192,6.4,15.0,89,0.00,CLR,,0.00,WeatherDisplay:10.37,2013-05-11 22:14:00,
2013-05-11 18:19:00,73.7,70.6,29.86,SSW,194,4.0,10.4,90,0.00,CLR,,0.00,WeatherDisplay:10.37,2013-05-11 22:19:00,
2013-05-11 18:24:00,73.4,70.3,29.86,SSE,168,6.1,10.4,90,0.00,CLR,,0.00,WeatherDisplay:10.37,2013-05-11 22:24:00,
2013-05-11 18:29:00,73.2,70.1,29.86,South,177,4.3,8.1,90,0.00,CLR,,0.00,WeatherDisplay:10.37,2013-05-11 22:29:00,
2013-05-11 18:35:00,73.1,70.3,29.86,South,179,4.7,9.2,91,0.00,CLR,,0.00,WeatherDisplay:10.37,2013-05-11 22:35:00,
2013-05-11 18:40:00,73.0,70.2,29.87,South,180,7.4,15.0,91,0.00,CLR,,0.00,WeatherDisplay:10.37,2013-05-11 22:40:00,
2013-05-11 18:45:00,73.0,70.2,29.87,South,178,6.6,12.7,91,0.00,CLR,,0.00,WeatherDisplay:10.37,2013-05-11 22:45:00,
2013-05-11 18:50:00,73.0,69.9,29.86,SSW,197,5.0,14.0,90,0.00,,,0.00,WeatherDisplay:10.37,2013-05-11 22:50:00,
2013-05-11 18:55:00,73.0,69.2,29.87,South,189,6.0,12.0,88,0.00,CLR,,0.00,WeatherDisplay:10.37,2013-05-11 22:55:00,
2013-05-11 19:00:00,73.1,69.3,29.87,South,190,5.0,12.0,88,0.00,CLR,,0.00,WeatherDisplay:10.37,2013-05-11 23:00:00,
2013-05-11 19:05:00,73.1,69.3,29.87,South,191,7.0,15.0,88,0.00,CLR,,0.00,WeatherDisplay:10.37,2013-05-11 23:05:00,
2013-05-11 19:10:00,73.1,69.3,29.87,SSW,195,3.0,13.0,88,0.00,CLR,,0.00,WeatherDisplay:10.37,2013-05-11 23:10:00,
2013-05-11 19:15:00,72.9,69.2,29.87,SSW,199,7.0,14.0,88,0.00,CLR,,0.00,WeatherDisplay:10.37,2013-05-11 23:15:00,
2013-05-11 19:20:00,72.9,69.1,29.87,SSW,199,3.0,16.0,88,0.00,CLR,,0.00,WeatherDisplay:10.37,2013-05-11 23:20:00,
2013-05-11 19:25:00,72.7,68.9,29.86,SSW,200,6.0,12.0,88,0.00,CLR,,0.00,WeatherDisplay:10.37,2013-05-11 23:25:00,
2013-05-11 19:30:00,72.5,68.7,29.86,SSW,198,5.0,15.0,88,0.00,CLR,,0.00,WeatherDisplay:10.37,2013-05-11 23:30:00,
2013-05-11 19:35:00,72.3,68.5,29.86,SSW,192,3.0,12.0,88,0.00,CLR,,0.00,WeatherDisplay:10.37,2013-05-11 23:35:00,
2013-05-11 19:40:00,72.0,68.6,29.85,SSW,194,8.0,17.0,89,0.00,CLR,,0.00,WeatherDisplay:10.37,2013-05-11 23:40:00,
2013-05-11 19:45:00,71.9,68.4,29.86,SSW,193,7.0,12.0,89,0.00,CLR,,0.00,WeatherDisplay:10.37,2013-05-11 23:45:00,
2013-05-11 19:50:00,71.7,68.0,29.86,SSW,195,5.0,12.0,88,0.00,CLR,,0.00,WeatherDisplay:10.37,2013-05-11 23:50:00,
2013-05-11 19:55:00,71.7,68.3,29.87,SSW,196,5.0,14.0,89,0.00,CLR,,0.00,WeatherDisplay:10.37,2013-05-11 23:55:00,
2013-05-11 20:00:00,71.7,68.3,29.86,SSW,200,5.0,13.0,89,0.00,CLR,,0.00,WeatherDisplay:10.37,2013-05-12 00:00:00,
2013-05-11 20:05:00,71.8,68.1,29.86,SSW,201,6.0,18.0,88,0.00,CLR,,0.00,WeatherDisplay:10.37,2013-05-12 00:05:00,
2013-05-11 20:10:00,71.9,67.8,29.86,SSW,206,6.0,17.0,87,0.00,CLR,,0.00,WeatherDisplay:10.37,2013-05-12 00:10:00,
2013-05-11 20:15:00,72.0,67.9,29.87,SSW,204,5.0,12.0,87,0.00,CLR,,0.00,WeatherDisplay:10.37,2013-05-12 00:15:00,
2013-05-11 20:20:00,72.1,68.0,29.86,SSW,208,5.0,13.0,87,0.00,CLR,,0.00,WeatherDisplay:10.37,2013-05-12 00:20:00,
2013-05-11 20:25:00,72.1,67.7,29.86,SSW,206,5.0,15.0,86,0.00,CLR,,0.00,WeatherDisplay:10.37,2013-05-12 00:25:00,
2013-05-11 20:30:00,72.1,67.7,29.86,SSW,198,7.0,14.0,86,0.00,CLR,,0.00,WeatherDisplay:10.37,2013-05-12 00:30:00,
2013-05-11 20:35:00,72.1,67.3,29.86,SSW,200,6.0,17.0,85,0.00,CLR,,0.00,WeatherDisplay:10.37,2013-05-12 00:35:00,
2013-05-11 20:40:00,72.1,67.7,29.86,SSW,201,7.0,13.0,86,0.00,CLR,,0.00,WeatherDisplay:10.37,2013-05-12 00:40:00,
2013-05-11 20:45:00,72.2,67.4,29.87,SSW,199,3.0,13.0,85,0.00,CLR,,0.00,WeatherDisplay:10.37,2013-05-12 00:45:00,
2013-05-11 20:50:00,72.2,67.4,29.86,SSW,201,8.0,16.0,85,0.00,CLR,,0.00,WeatherDisplay:10.37,2013-05-12 00:50:00,
2013-05-11 20:55:00,72.2,67.8,29.87,SSW,201,8.0,13.0,86,0.00,CLR,,0.00,WeatherDisplay:10.37,2013-05-12 00:55:00,
2013-05-11 21:00:00,72.2,67.4,29.87,SSW,195,7.0,15.0,85,0.00,CLR,,0.00,WeatherDisplay:10.37,2013-05-12 01:00:00,
2013-05-11 21:05:00,72.1,67.3,29.87,South,187,5.0,14.0,85,0.00,CLR,,0.00,WeatherDisplay:10.37,2013-05-12 01:05:00,
2013-05-11 21:10:00,72.0,67.3,29.87,SSW,196,6.0,16.0,85,0.00,CLR,,0.00,WeatherDisplay:10.37,2013-05-12 01:10:00,
2013-05-11 21:15:00,72.0,67.2,29.87,SSW,200,5.0,13.0,85,0.00,CLR,,0.00,WeatherDisplay:10.37,2013-05-12 01:15:00,
2013-05-11 21:20:00,72.1,67.3,29.87,South,190,6.0,16.0,85,0.00,CLR,,0.00,WeatherDisplay:10.37,2013-05-12 01:20:00,
2013-05-11 21:25:00,72.1,67.3,29.87,SSW,193,3.0,12.0,85,0.00,CLR,,0.00,WeatherDisplay:10.37,2013-05-12 01:25:00,
2013-05-11 21:30:00,72.1,67.3,29.87,SSW,205,5.0,14.0,85,0.00,CLR,,0.00,WeatherDisplay:10.37,2013-05-12 01:30:00,
2013-05-11 21:35:00,72.0,66.9,29.87,SW,224,5.0,12.0,84,0.00,CLR,,0.00,WeatherDisplay:10.37,2013-05-12 01:35:00,
2013-05-11 21:40:00,72.0,67.2,29.88,SW,229,2.0,9.0,85,0.00,CLR,,0.00,WeatherDisplay:10.37,2013-05-12 01:40:00,
2013-05-11 21:45:00,72.0,67.2,29.88,SW,227,1.0,7.0,85,0.00,CLR,,0.00,WeatherDisplay:10.37,2013-05-12 01:45:00,
2013-05-11 21:50:00,71.9,67.1,29.87,SSW,196,3.0,12.0,85,0.00,CLR,,0.00,WeatherDisplay:10.37,2013-05-12 01:50:00,
2013-05-11 21:55:00,71.9,67.1,29.88,SSW,194,3.0,13.0,85,0.00,CLR,,0.00,WeatherDisplay:10.37,2013-05-12 01:55:00,
2013-05-11 22:00:00,71.9,67.1,29.88,SSW,201,6.0,12.0,85,0.00,CLR,,0.00,WeatherDisplay:10.37,2013-05-12 02:00:00,
2013-05-11 22:05:00,72.0,67.2,29.88,SW,214,3.0,17.0,85,0.00,CLR,,0.00,WeatherDisplay:10.37,2013-05-12 02:05:00,
2013-05-11 22:10:00,72.1,67.3,29.88,SSW,208,3.0,12.0,85,0.00,CLR,,0.00,WeatherDisplay:10.37,2013-05-12 02:10:00,
2013-05-11 22:15:00,72.0,66.9,29.88,SSW,194,5.9,9.2,84,0.00,CLR,,0.00,WeatherDisplay:10.37,2013-05-12 02:15:00,
2013-05-11 22:20:00,72.1,67.3,29.88,SW,231,8.4,10.4,85,0.00,CLR,,0.00,WeatherDisplay:10.37,2013-05-12 02:20:00,
2013-05-11 22:25:00,72.1,67.3,29.88,South,178,4.4,11.5,85,0.00,CLR,,0.00,WeatherDisplay:10.37,2013-05-12 02:25:00,
2013-05-11 22:31:00,72.1,67.3,29.88,SW,225,3.8,4.6,85,0.00,CLR,,0.00,WeatherDisplay:10.37,2013-05-12 02:31:00,
2013-05-11 22:36:00,72.0,67.2,29.88,SW,223,5.5,8.1,85,0.00,CLR,,0.00,WeatherDisplay:10.37,2013-05-12 02:36:00,
2013-05-11 22:41:00,72.0,67.2,29.87,SSW,202,3.6,6.9,85,0.00,CLR,,0.00,WeatherDisplay:10.37,2013-05-12 02:41:00,
2013-05-11 22:46:00,71.8,67.4,29.87,SW,232,4.1,10.4,86,0.00,CLR,,0.00,WeatherDisplay:10.37,2013-05-12 02:46:00,
2013-05-11 22:51:00,71.6,67.5,29.87,SSW,209,4.9,6.9,87,0.00,CLR,,0.00,WeatherDisplay:10.37,2013-05-12 02:51:00,
2013-05-11 22:57:00,71.5,67.4,29.87,SSW,201,4.8,6.9,87,0.00,CLR,,0.00,WeatherDisplay:10.37,2013-05-12 02:57:00,
2013-05-11 23:02:00,71.5,67.4,29.87,SSW,209,5.3,8.1,87,0.00,CLR,,0.00,WeatherDisplay:10.37,2013-05-12 03:02:00,
2013-05-11 23:07:00,71.4,67.3,29.88,SSW,201,5.0,12.7,87,0.00,CLR,,0.00,WeatherDisplay:10.37,2013-05-12 03:07:00,
2013-05-11 23:12:00,71.3,67.2,29.88,SSW,208,3.4,5.8,87,0.00,CLR,,0.00,WeatherDisplay:10.37,2013-05-12 03:12:00,
2013-05-11 23:17:00,71.2,67.5,29.88,South,178,2.7,4.0,88,0.00,CLR,,0.00,WeatherDisplay:10.37,2013-05-12 03:17:00,
2013-05-11 23:23:00,71.1,67.4,29.87,South,191,3.6,6.9,88,0.00,CLR,,0.00,WeatherDisplay:10.37,2013-05-12 03:23:00,
2013-05-11 23:28:00,71.1,67.4,29.87,SW,234,3.1,11.5,88,0.00,CLR,,0.00,WeatherDisplay:10.37,2013-05-12 03:28:00,
2013-05-11 23:33:00,71.1,67.4,29.87,SSW,200,3.2,6.9,88,0.00,CLR,,0.00,WeatherDisplay:10.37,2013-05-12 03:33:00,
2013-05-11 23:38:00,71.1,67.4,29.87,SSW,209,2.1,4.6,88,0.00,CLR,,0.00,WeatherDisplay:10.37,2013-05-12 03:38:00,
2013-05-11 23:43:00,71.0,67.6,29.87,SW,217,3.4,3.5,89,0.00,CLR,,0.00,WeatherDisplay:10.37,2013-05-12 03:43:00,
2013-05-11 23:49:00,70.9,67.5,29.87,SSW,193,4.4,6.9,89,0.00,CLR,,0.00,WeatherDisplay:10.37,2013-05-12 03:49:00,
2013-05-11 23:54:00,70.8,67.4,29.86,SSW,204,4.4,9.2,89,0.00,CLR,,0.00,WeatherDisplay:10.37,2013-05-12 03:54:00,
2013-05-11 23:59:00,70.7,67.3,29.86,SSW,194,3.2,10.4,89,0.00,CLR,,0.00,WeatherDisplay:10.37,2013-05-12 03:59:00,